Date String (YYYY-MM-DD hh:mm:ss) UTC,Instrument flags,Ambient pressure (hPa),Sample flow (lpm),Bypass flow (lpm),Sample temperature (°C),Ambient temperature (°C),ASC tube jacket temperature (°C),LED temperature (°C),Box temperature (°C),Sample RH (%),Span deviation,Mass concentration (μg/m³),Mass concentration (μg/m³),Mass concentration (μg/m³)
DateTimeUTC,F1_M11,P_M11,Q1_M11,Q2_M11,T1_M11,T2_M11,T3_M11,T4_M11,T5_M11,U1_M11,ZSPAN_M11,X0_M11,X2_M11,X1_M11
2022-02-10 13:00:00,,0826.6,5.01,0.00,22.4,22.7,00.0,31.3,24.3,11.7,0000.0,0003.02,0001.56,0001.25
2022-02-10 13:01:00,,0826.6,5.00,0.00,22.3,22.4,00.0,31.3,24.1,11.5,0000.0,0003.04,0001.55,0001.23
2022-02-10 13:02:00,,0826.6,5.00,0.00,22.3,22.1,00.0,31.3,24.0,11.2,0000.0,0003.03,0001.50,0001.20
2022-02-10 13:03:00,,0826.7,5.01,0.00,22.3,22.0,00.0,31.3,24.0,11.0,0000.0,0003.12,0001.49,0001.18
2022-02-10 13:04:00,,0826.6,4.99,0.00,22.3,21.9,00.0,31.3,24.0,10.9,0000.0,0003.08,0001.49,0001.18
2022-02-10 13:05:00,,0826.6,5.01,0.00,22.2,21.8,00.0,31.3,24.0,11.0,0000.0,0003.03,0001.50,0001.18
2022-02-10 13:06:00,,0826.6,4.98,0.00,22.2,21.7,00.0,31.3,24.0,10.8,0000.0,0003.01,0001.47,0001.15
2022-02-10 13:07:00,,0826.5,5.02,0.00,22.2,21.6,00.0,31.3,23.9,10.7,0000.0,0003.08,0001.48,0001.12
2022-02-10 13:08:00,,0826.5,4.99,0.00,22.1,21.5,00.0,31.2,23.9,10.7,0000.0,0002.50,0001.39,0001.06
2022-02-10 13:09:00,,0826.5,5.00,0.00,22.1,21.4,00.0,31.2,23.8,10.8,0000.0,0002.18,0001.32,0001.02
2022-02-10 13:10:00,,0826.6,5.00,0.00,22.0,21.3,00.0,31.2,23.7,11.1,0000.0,0002.04,0001.26,0001.00
2022-02-10 13:11:00,,0826.6,4.99,0.00,22.0,21.2,00.0,31.2,23.6,11.2,0000.0,0001.99,0001.24,0001.00
2022-02-10 13:12:00,,0826.6,5.01,0.00,21.9,21.0,00.0,31.2,23.5,11.1,0000.0,0001.97,0001.23,0000.99
2022-02-10 13:13:00,,0826.6,5.00,0.00,21.9,21.0,00.0,31.1,23.5,11.3,0000.0,0001.99,0001.27,0001.00
2022-02-10 13:14:00,,0826.6,5.00,0.00,21.9,21.0,00.0,31.1,23.5,11.7,0000.0,0001.87,0001.25,0000.99
2022-02-10 13:15:00,,0826.6,5.00,0.00,21.8,21.0,00.0,31.1,23.5,11.7,0000.0,0001.79,0001.21,0000.97
2022-02-10 13:16:00,,0826.6,4.99,0.00,21.8,21.0,00.0,31.0,23.4,11.6,0000.0,0002.21,0001.21,0000.97
2022-02-10 13:17:00,,0826.6,5.01,0.00,21.8,21.0,00.0,31.0,23.4,11.8,0000.0,0002.57,0001.21,0000.97
2022-02-10 13:18:00,,0826.6,5.00,0.00,21.8,21.5,00.0,31.0,23.6,11.9,0000.0,0002.51,0001.19,0000.97
2022-02-10 13:19:00,,0826.5,5.01,0.00,22.0,22.3,00.0,31.1,23.9,11.7,0000.0,0002.55,0001.20,0000.98
2022-02-10 13:20:00,,0826.5,5.02,0.00,22.1,22.9,00.0,31.1,24.2,11.5,0000.0,0002.61,0001.22,0000.98
2022-02-10 13:21:00,,0826.5,4.98,0.00,22.2,22.8,00.0,31.1,24.2,11.5,0000.0,0002.56,0001.21,0000.97
2022-02-10 13:22:00,,0826.5,5.00,0.00,22.2,22.5,00.0,31.1,24.1,11.1,0000.0,0002.55,0001.21,0000.97
2022-02-10 13:23:00,,0826.4,5.01,0.00,22.2,22.2,00.0,31.1,24.0,11.1,0000.0,0002.58,0001.23,0000.98
2022-02-10 13:24:00,,0826.3,5.00,0.00,22.2,22.0,00.0,31.1,23.9,10.9,0000.0,0002.69,0001.27,0000.99
2022-02-10 13:25:00,,0826.3,4.99,0.00,22.1,21.8,00.0,31.1,23.8,10.9,0000.0,0003.69,0001.30,0001.01
2022-02-10 13:26:00,,0826.3,5.00,0.00,22.1,21.7,00.0,31.1,23.7,10.9,0000.0,0004.04,0001.32,0001.02
2022-02-10 13:27:00,,0826.3,5.00,0.00,22.0,21.5,00.0,31.1,23.7,10.8,0000.0,0003.71,0001.35,0001.03
2022-02-10 13:28:00,,0826.3,5.01,0.00,22.0,21.4,00.0,31.1,23.6,11.0,0000.0,0003.32,0001.33,0001.03
2022-02-10 13:29:00,,0826.4,5.01,0.00,22.0,21.3,00.0,31.1,23.6,11.0,0000.0,0003.33,0001.34,0001.04
2022-02-10 13:30:00,,0826.3,4.99,0.00,21.9,21.2,00.0,31.1,23.6,11.1,0000.0,0003.36,0001.36,0001.05
2022-02-10 13:31:00,,0826.3,5.02,0.00,21.9,21.2,00.0,31.0,23.5,10.9,0000.0,0003.41,0001.36,0001.05
2022-02-10 13:32:00,,0826.3,4.98,0.00,21.8,21.1,00.0,31.0,23.4,10.9,0000.0,0003.45,0001.38,0001.06
2022-02-10 13:33:00,,0826.3,5.01,0.00,21.8,21.1,00.0,31.0,23.4,10.7,0000.0,0003.53,0001.40,0001.08
2022-02-10 13:34:00,,0826.4,5.00,0.00,21.8,21.0,00.0,31.0,23.4,10.8,0000.0,0003.55,0001.39,0001.08
2022-02-10 13:35:00,,0826.4,5.00,0.00,21.8,21.1,00.0,31.0,23.4,10.9,0000.0,0003.47,0001.34,0001.08
2022-02-10 13:36:00,,0826.4,5.00,0.00,21.8,21.1,00.0,30.9,23.4,10.8,0000.0,0002.56,0001.34,0001.07
2022-02-10 13:37:00,,0826.4,4.99,0.00,21.8,21.1,00.0,30.9,23.5,10.8,0000.0,0002.29,0001.33,0001.07
2022-02-10 13:38:00,,0826.3,5.01,0.00,21.8,21.1,00.0,30.9,23.4,10.6,0000.0,0002.17,0001.29,0001.06
2022-02-10 13:39:00,,0826.2,5.00,0.00,21.7,21.0,00.0,30.9,23.4,10.7,0000.0,0002.26,0001.31,0001.06
2022-02-10 13:40:00,,0826.2,5.00,0.00,21.7,21.0,00.0,30.9,23.4,10.7,0000.0,0002.29,0001.30,0001.06
2022-02-10 13:41:00,,0826.2,4.99,0.00,21.7,21.3,00.0,30.9,23.5,10.7,0000.0,0002.20,0001.26,0001.05
2022-02-10 13:42:00,,0826.1,5.00,0.00,21.9,22.1,00.0,30.9,23.8,10.5,0000.0,0002.17,0001.25,0001.04
2022-02-10 13:43:00,,0826.1,5.01,0.00,22.0,22.9,00.0,31.0,24.1,10.5,0000.0,0002.24,0001.25,0001.04
2022-02-10 13:44:00,,0826.1,4.99,0.00,22.2,23.0,00.0,31.0,24.2,10.4,0000.0,0002.35,0001.24,0001.03
2022-02-10 13:45:00,,0826.1,5.00,0.00,22.2,22.8,00.0,31.0,24.2,10.3,0000.0,0002.49,0001.23,0001.03
2022-02-10 13:46:00,,0826.1,5.00,0.00,22.2,22.6,00.0,31.0,24.1,10.3,0000.0,0002.38,0001.20,0001.02
2022-02-10 13:47:00,,0826.1,5.00,0.00,22.2,22.4,00.0,31.1,24.1,10.3,0000.0,0002.28,0001.19,0001.02
2022-02-10 13:48:00,,0826.1,5.00,0.00,22.2,22.2,00.0,31.1,24.1,10.2,0000.0,0002.33,0001.20,0001.02
2022-02-10 13:49:00,,0826.1,5.01,0.00,22.3,22.1,00.0,31.1,24.1,10.2,0000.0,0002.50,0001.26,0001.03
2022-02-10 13:50:00,,0826.2,4.99,0.00,22.2,22.0,00.0,31.1,24.1,10.2,0000.0,0002.50,0001.28,0001.02
2022-02-10 13:51:00,,0826.1,4.99,0.00,22.2,21.9,00.0,31.1,24.0,10.2,0000.0,0002.44,0001.28,0001.02
2022-02-10 13:52:00,,0826.1,5.01,0.00,22.2,21.9,00.0,31.1,24.0,10.4,0000.0,0002.56,0001.33,0001.04
2022-02-10 13:53:00,,0826.1,5.00,0.00,22.2,21.8,00.0,31.1,24.0,10.3,0000.0,0002.59,0001.35,0001.04
2022-02-10 13:54:00,,0826.1,4.99,0.00,22.2,21.8,00.0,31.1,24.0,10.8,0000.0,0002.50,0001.34,0001.04
2022-02-10 13:55:00,,0826.1,5.01,0.00,22.2,21.8,00.0,31.2,24.1,11.2,0000.0,0002.40,0001.37,0001.05
2022-02-10 13:56:00,,0826.1,4.99,0.00,22.3,21.8,00.0,31.2,24.1,10.9,0000.0,0002.34,0001.40,0001.05
2022-02-10 13:57:00,,0826.0,5.01,0.00,22.3,21.8,00.0,31.2,24.1,10.7,0000.0,0002.40,0001.41,0001.05
2022-02-10 13:58:00,,0826.0,4.99,0.00,22.3,21.7,00.0,31.2,24.1,10.6,0000.0,0002.44,0001.41,0001.06
2022-02-10 13:59:00,,0826.0,5.00,0.00,22.3,21.7,00.0,31.2,24.1,10.6,0000.0,0002.43,0001.42,0001.06
